Home   Weather   Petersburg   Past weeks
Flag for USA

Past Weather in Petersburg, Virginia, USA — Yesterday and Last 2 Weeks

Now
55 °F

Low clouds.


Feels Like: 53 °F
Forecast: 66 / 51 °F
Wind: 7 mph from Southwest

Location: Petersburg Weather Reporting System

Current Time: Dec 9, 2019 at 7:13:13 pm

Latest Report: Dec 9, 2019 at 6:35 pm


Visibility: 10 mi

Pressure: 29.92 "Hg

Humidity: 92%

Dew Point: 53 °F

Location of PetersburgLocation

Past Weather in Petersburg — Graph

°F

Petersburg Temperature Yesterday

Maximum temperature yesterday: 51 °F (at 2:15 pm)
Minimum temperature yesterday: 20 °F (at 6:35 am)
Average temperature yesterday: 37 °F

High & Low Weather Summary for the Past Weeks

 TemperatureHumidityPressure
High65 °F (Nov 26, 1:55 pm)96% (Nov 25, 9:55 pm)30.52 "Hg (Nov 25, 9:55 pm)
Low20 °F (Dec 8, 6:35 am)27% (Dec 5, 3:15 pm)29.48 "Hg (Dec 1, 1:55 pm)
Average43 °F72%30.00 "Hg
* Reported Nov 24 5:15 pm — Dec 9 5:55 pm, Petersburg. Weather by CustomWeather, © 2019

Note: Actual official high and low records may vary slightly from our data, if they occured in-between our weather recording intervals... More about our weather records

Petersburg Weather History for the Previous 24 Hours

Scroll right to see more
 ConditionsComfort  
Time TempWeatherWind HumidityBarometerVisibility
5:55 pm
Mon, Dec 9
53 °FPassing clouds.6 mph92%29.92 "Hg10 mi
5:35 pm53 °FPassing clouds.5 mph92%29.92 "Hg7 mi
5:15 pm52 °FClear.5 mph92%29.93 "Hg7 mi
4:55 pm52 °FFog.5 mph92%29.93 "Hg5 mi
4:35 pm52 °FFog.3 mph93%29.94 "Hg5 mi
4:15 pm52 °FFog.No wind92%29.94 "Hg5 mi
3:55 pm52 °FLight rain. More clouds than sun.3 mph92%29.95 "Hg7 mi
3:35 pm51 °FLight rain. Mostly cloudy.3 mph93%29.95 "Hg5 mi
3:15 pm51 °FLight rain. Low clouds.No wind93%29.96 "Hg5 mi
2:55 pm51 °FLight rain. Low clouds.3 mph94%29.96 "Hg7 mi
2:35 pm50 °FLight rain. Low clouds.3 mph94%29.96 "Hg5 mi
2:15 pm50 °FLow clouds.3 mph94%29.98 "Hg7 mi
1:35 pm49 °FFog.5 mph94%30.00 "Hg5 mi
1:15 pm49 °FFog.No wind95%30.00 "Hg5 mi
12:15 pm48 °FLow clouds.3 mph95%30.05 "Hg10 mi
11:55 am47 °FLight rain. Low clouds.No wind95%30.06 "Hg7 mi
11:35 am47 °FLow clouds.5 mph95%30.08 "Hg7 mi
11:15 am47 °FFog.No wind95%30.11 "Hg5 mi
10:55 am47 °FLow clouds.5 mph95%30.12 "Hg7 mi
10:35 am47 °FFog.3 mph96%30.13 "Hg4 mi
10:15 am47 °FFog.3 mph96%30.13 "Hg1 mi
9:55 am46 °FFog.5 mph95%30.14 "Hg1 mi
9:35 am46 °FFog.No wind95%30.14 "Hg1 mi
9:15 am45 °FFog.3 mph96%30.14 "Hg1 mi
8:55 am45 °FFog.3 mph95%30.13 "Hg1 mi
8:15 am44 °FFog.No wind95%30.13 "Hg0 mi
7:55 am44 °FFog.No wind95%30.14 "Hg1 mi
7:35 am44 °FFog.No wind95%30.14 "Hg0 mi
7:15 am43 °FFog.No wind96%30.13 "Hg0 mi
6:55 am43 °FFog.No wind95%30.13 "Hg0 mi
6:35 am43 °FFog.No wind95%30.15 "Hg1 mi
6:15 am43 °FFog.No wind94%30.14 "Hg1 mi
5:55 am43 °FFog.No wind95%30.14 "Hg1 mi
5:35 am43 °FFog.No wind95%30.16 "Hg1 mi
5:15 am43 °FFog.3 mph94%30.17 "Hg4 mi
4:55 am43 °FLow clouds.6 mph95%30.18 "Hg10 mi
4:35 am44 °FLow clouds.5 mph94%30.17 "Hg7 mi
4:15 am44 °FLow clouds.5 mph94%30.17 "Hg7 mi
3:55 am44 °FLow clouds.No wind95%30.16 "Hg7 mi
3:35 am44 °FLow clouds.No wind94%30.18 "Hg10 mi
3:15 am44 °FLow clouds.3 mph95%30.20 "Hg10 mi
2:55 am44 °FMostly cloudy.No wind94%30.21 "Hg10 mi
2:35 am44 °FDrizzle. Overcast.3 mph94%30.21 "Hg4 mi
2:15 am44 °FDrizzle. Mostly cloudy.No wind94%30.22 "Hg4 mi
1:55 am44 °FLight rain. Mostly cloudy.3 mph94%30.23 "Hg3 mi
1:35 am44 °FLight rain. Overcast.3 mph94%30.24 "Hg2 mi
1:15 am44 °FLight rain. Mostly cloudy.3 mph94%30.23 "Hg3 mi
12:55 am44 °FRain. Low clouds.3 mph95%30.24 "Hg2 mi
12:35 am44 °FDrizzle. Mostly cloudy.3 mph94%30.25 "Hg3 mi
12:15 am44 °FLight rain. Mostly cloudy.No wind94%30.27 "Hg2 mi
11:55 pm
Sun, Dec 8
44 °FLight rain. Mostly cloudy.No wind94%30.27 "Hg2 mi
11:35 pm44 °FRain. Low clouds.3 mph94%30.28 "Hg2 mi
11:15 pm44 °FLight rain. Mostly cloudy.No wind94%30.29 "Hg2 mi
10:55 pm44 °FLight rain. Mostly cloudy.3 mph94%30.29 "Hg2 mi
10:35 pm44 °FLight rain. Overcast.No wind94%30.30 "Hg2 mi
10:15 pm44 °FLight rain. Mostly cloudy.3 mph93%30.31 "Hg2 mi
9:55 pm44 °FLight rain. Overcast.No wind93%30.32 "Hg2 mi
9:35 pm43 °FLight rain. Overcast.No wind92%30.33 "Hg2 mi
9:15 pm44 °FDrizzle. Overcast.3 mph89%30.34 "Hg4 mi
8:55 pm44 °FDrizzle. Mostly cloudy.No wind86%30.34 "Hg7 mi
8:35 pm45 °FLight rain. Mostly cloudy.No wind81%30.34 "Hg10 mi
8:15 pm44 °FOvercast.No wind81%30.34 "Hg10 mi
7:55 pm43 °FMostly cloudy.No wind85%30.35 "Hg10 mi
7:35 pm42 °FMostly cloudy.No wind87%30.36 "Hg10 mi
7:15 pm42 °FMostly cloudy.No wind82%30.36 "Hg10 mi
Weather by CustomWeather, © 2019

See weather overview

Advertising